Location: Brad
(46.1333°N, 22.7833°E)
Time: 20:12:09
(UTC+00:00)

MINOTAUR 4 R/B - Pass Details

Date: 03 February 2023
Orbit: 448 x 453 km, 98.0° (Epoch: 23 March)

Event Time Altitude Azimuth Distance (km) Brightness Sun altitude
Exits shadow 15:47:41 - 64° (ENE) 2,144 6.6 -2.7°
Enters shadow 17:05:08 -31° 9° (N) 7,458 10.0 -15.6°
Maximum altitude 17:22:50 77° 103° (ESE) 465 3.7 -18.7°
